Temp
88 88 87 88 88 87 87 88 88 88 87 86 85 83 82 80 79 80 78 78 77 75 76 75 72 72 74 76 76 75 74 73 68 73 76 77 73 73 73 74 76 75 79
89 87 87 88 88 88 87 88 89 87 88 86 84 82 80 79 79 79 80 78 78 77 76 74 71 75 70 71 75 69 71 70 69 65 72 74 73 72 71 70 75 79 78
88 88 88 88 88 88 89 88 88 87 85 86 83 80 76 79 78 78 78 77 77 76 75 72 70 70 69 70 70 70 73 71 72 71 71 76 75 76 72 74 74 74 80
90 89 88 88 89 90 89 88 87 86 85 83 81 78 76 74 78 77 76 75 75 75 74 72 71 69 68 68 70 69 70 68 72 72 73 73 74 73 74 72 72 77 76
89 89 88 88 88 89 88 88 87 85 84 82 78 75 72 76 80 77 76 75 73 73 73 74 70 66 61 61 67 66 66 68 70 70 71 72 71 69 67 71 70 74 75
90 88 88 87 87 87 87 86 83 83 81 77 75 73 71 78 62 65 73 76 74 73 71 72 72 65 68 62 61 61 61 62 62 65 67 66 65 67 70 68 68 68 67
88 88 88 87 86 86 86 85 82 80 76 74 72 69 70 70 61 62 65 75 74 74 73 73 74 75 69 70 67 63 64 62 61 63 62 63 63 65 65 63 65 65 67
88 88 88 87 86 86 85 82 80 77 74 72 69 66 69 69 60 60 63 72 72 72 73 72 70 69 66 63 65 68 69 70 70 70 66 66 67 66 64 65 64 67 73
89 88 88 88 86 85 84 80 78 76 73 70 66 65 65 63 58 58 62 72 72 70 72 71 69 68 56 56 63 65 66 69 68 62 61 59 58 58 60 66 69 68 69
90 89 89 88 86 85 83 77 78 76 72 72 63 65 66 68 56 56 61 78 71 74 70 68 58 60 55 54 62 65 64 65 64 67 70 69 65 70 59 65 70 67 67
91 90 88 87 86 85 82 77 75 74 70 67 65 65 67 69 62 54 55 74 76 74 76 74 73 54 52 51 51 64 60 58 63 69 72 74 74 74 75 73 70 69 67
90 88 86 86 87 84 77 74 74 71 66 63 64 63 67 69 60 54 54 56 61 74 74 76 68 52 51 51 56 51 51 54 72 71 72 71 71 71 72 71 70 70 71
87 86 85 84 84 78 76 73 72 69 66 65 65 68 70 71 68 53 53 55 56 68 75 61 57 55 51 54 53 53 52 70 69 69 69 69 70 72 70 71 71 70 71
84 83 83 81 80 76 78 76 77 73 73 71 66 70 74 73 72 69 68 65 57 62 59 67 62 59 54 63 63 65 70 69 67 68 68 70 71 71 71 72 70 71 70
84 84 82 84 77 75 80 80 80 78 75 73 72 77 76 73 73 66 67 72 73 64 66 71 71 72 71 71 70 70 70 69 68 68 68 68 69 69 69 70 70 70 68
83 84 85 83 80 77 73 71 50 56 52 54 57 71 76 60 51 48 47 48 49 49 65 71 71 71 70 69 69 69 70 67 67 68 68 68 67 67 67 69 70 68 66
85 85 85 81 81 71 72 69 63 53 47 46 49 50 56 52 47 45 44 44 45 47 68 72 71 71 70 69 69 69 68 67 65 68 67 67 67 67 66 67 67 67 65
86 68 85 86 83 78 76 75 72 67 69 68 51 58 44 44 43 43 43 46 61 57 70 72 71 71 71 69 69 68 67 68 67 67 67 67 67 66 66 66 66 63 63
86 85 87 86 84 79 79 76 71 71 73 72 67 57 48 42 42 42 43 71 72 72 73 71 71 72 71 70 69 67 64 66 64 65 67 66 67 66 66 66 66 57 58
85 74 79 85 82 81 78 74 71 72 76 74 70 69 65 59 63 64 65 69 73 74 73 72 70 71 70 69 69 68 68 67 67 67 66 66 66 67 66 66 66 65 64
87 83 74 83 80 79 75 72 73 76 77 75 74 70 58 71 71 70 70 72 73 73 73 73 72 71 69 68 69 69 69 69 68 66 66 66 67 67 67 67 67 66 66
85 83 83 83 80 77 74 74 75 80 79 77 77 67 50 75 76 75 74 74 75 74 74 72 73 73 73 73 69 70 70 69 67 66 65 67 68 68 68 67 67 66 65
84 83 83 82 79 70 74 75 79 80 79 79 78 70 69 75 77 76 75 75 74 73 73 72 73 72 71 70 72 71 71 68 67 66 65 68 68 67 68 67 67 65 64
85 84 84 81 79 79 76 74 80 70 79 79 78 73 73 76 77 76 76 75 74 73 72 72 72 72 67 70 70 71 71 66 66 69 66 68 68 65 67 66 66 65 64
81 79 79 80 79 78 77 73 77 80 79 79 78 75 75 76 77 77 76 75 73 72 71 71 71 68 66 65 66 66 41 33 50 41 67 68 66 66 66 67 65 65 63
75 74 75 77 79 79 77 72 75 79 79 79 79 78 76 76 77 77 75 74 73 73 72 71 70 68 66 66 63 41 35 34 50 33 57 70 67 66 66 65 64 65 64
MSLP
1012.32 1012.97 1013.63 1014.04 1014.51 1014.92 1015.07 1015.32 1015.57 1015.79 1016.06 1016.29 1016.64 1017.09 1017.49 1017.92 1018.25 1018.37 1018.44 1018.61 1018.78 1019.01 1019.11 1019.16 1019.26 1019.38 1018.99 1018.70 1018.58 1018.33 1017.86 1017.60 1017.13 1016.37 1016.14 1015.74 1015.65 1015.40 1015.19 1014.84 1014.10 1013.52 1012.57
1011.60 1012.39 1012.96 1013.43 1013.81 1014.04 1014.41 1014.72 1015.02 1015.32 1015.62 1016.13 1016.65 1017.14 1017.61 1018.04 1018.34 1018.38 1018.32 1018.56 1018.71 1018.88 1019.07 1019.19 1019.37 1019.26 1019.43 1019.24 1018.54 1018.84 1018.38 1018.33 1017.70 1016.76 1016.03 1015.61 1015.23 1015.23 1014.98 1014.55 1013.75 1013.08 1012.58
1010.92 1011.59 1012.11 1012.55 1012.95 1013.27 1013.63 1014.12 1014.44 1014.89 1015.50 1016.03 1016.65 1017.24 1017.82 1018.04 1018.33 1018.45 1018.59 1018.71 1018.80 1018.98 1019.22 1019.45 1019.66 1019.64 1019.51 1019.54 1019.42 1019.08 1018.41 1018.27 1017.58 1016.95 1016.15 1015.35 1015.16 1014.68 1014.67 1013.89 1013.46 1012.77 1011.82
1009.99 1010.66 1011.18 1011.62 1012.02 1012.45 1013.03 1013.49 1013.97 1014.55 1015.20 1015.94 1016.61 1017.35 1017.85 1018.27 1018.36 1018.51 1018.68 1018.80 1018.92 1019.19 1019.58 1019.79 1019.84 1019.97 1020.14 1020.11 1019.49 1019.18 1018.66 1018.46 1017.48 1016.86 1016.10 1015.43 1014.95 1014.76 1014.32 1013.61 1012.93 1012.22 1011.66
1009.14 1009.76 1010.27 1010.82 1011.39 1011.83 1012.29 1012.87 1013.52 1014.36 1015.00 1015.85 1016.70 1017.55 1018.18 1018.24 1018.27 1018.42 1018.55 1018.80 1019.04 1019.36 1019.78 1019.80 1020.15 1020.67 1020.93 1020.86 1020.15 1019.69 1019.37 1018.68 1017.92 1017.11 1016.15 1015.53 1015.33 1015.21 1014.72 1014.16 1013.34 1012.32 1011.50
1008.21 1008.88 1009.50 1010.08 1010.65 1011.21 1011.77 1012.43 1013.29 1014.12 1015.04 1016.06 1016.59 1017.18 1017.96 1017.81 1018.52 1018.64 1018.57 1018.83 1019.25 1019.53 1019.70 1019.93 1020.07 1020.47 1020.26 1020.33 1020.40 1020.22 1019.96 1019.52 1018.92 1018.15 1017.18 1016.49 1016.07 1015.86 1015.06 1014.67 1013.79 1012.71 1011.55
1007.52 1008.24 1008.82 1009.41 1009.92 1010.53 1011.23 1011.97 1012.92 1014.01 1015.23 1016.07 1016.74 1017.30 1017.92 1018.44 1018.97 1019.01 1019.07 1019.11 1019.33 1019.45 1019.71 1019.80 1019.60 1019.65 1020.11 1020.09 1019.76 1019.59 1019.19 1019.02 1018.89 1018.66 1017.69 1017.08 1016.42 1015.94 1015.54 1014.85 1013.92 1013.41 1012.24
1006.69 1007.29 1007.89 1008.61 1009.41 1010.15 1010.82 1011.79 1012.78 1013.90 1014.94 1015.94 1016.90 1017.55 1018.20 1018.73 1019.25 1019.28 1019.28 1019.33 1019.50 1019.61 1019.59 1019.66 1019.84 1020.03 1020.43 1020.69 1020.16 1019.26 1018.74 1018.27 1017.93 1017.89 1017.73 1017.27 1016.93 1016.64 1016.36 1015.43 1014.36 1012.80 1011.31
1005.33 1006.13 1007.00 1007.91 1008.68 1009.42 1010.10 1011.24 1012.46 1013.54 1014.65 1015.81 1016.82 1017.51 1018.10 1018.67 1019.10 1019.21 1019.37 1019.24 1019.25 1019.44 1019.64 1019.79 1019.92 1020.11 1020.93 1021.05 1020.19 1019.21 1018.75 1018.01 1017.76 1017.81 1017.70 1017.38 1016.99 1016.69 1016.38 1015.44 1013.55 1012.50 1011.01
1003.97 1004.91 1006.06 1007.04 1007.88 1008.66 1009.56 1010.78 1012.09 1013.34 1014.45 1015.51 1016.78 1017.38 1017.73 1018.14 1018.90 1019.26 1019.33 1018.49 1018.96 1018.66 1019.39 1019.87 1020.46 1020.76 1021.11 1021.06 1020.43 1019.46 1018.81 1018.22 1018.06 1017.34 1016.42 1015.38 1015.28 1014.67 1014.98 1015.14 1013.69 1012.68 1011.72
1003.53 1004.51 1005.53 1006.36 1007.11 1007.95 1009.26 1010.74 1012.02 1013.11 1014.45 1015.54 1016.39 1017.15 1017.54 1017.99 1018.77 1019.16 1019.27 1018.60 1018.25 1018.68 1018.66 1018.99 1019.59 1020.64 1020.82 1020.84 1020.57 1019.70 1019.39 1019.04 1017.73 1016.40 1015.41 1014.70 1014.37 1013.87 1013.63 1013.73 1013.75 1013.30 1012.15
1003.05 1004.05 1005.01 1005.78 1006.42 1007.60 1009.12 1010.52 1011.73 1012.84 1014.10 1015.11 1015.98 1016.84 1017.21 1017.76 1018.40 1018.95 1019.13 1019.23 1018.98 1018.51 1018.73 1019.06 1019.78 1020.50 1020.63 1020.51 1020.10 1019.92 1019.35 1018.39 1016.78 1016.02 1015.33 1014.84 1014.62 1014.23 1013.77 1013.66 1013.34 1012.97 1012.47
1002.49 1003.44 1004.46 1005.45 1006.33 1007.64 1008.88 1010.06 1011.32 1012.54 1013.47 1014.37 1015.25 1015.69 1016.06 1017.05 1017.98 1018.67 1019.05 1019.24 1019.37 1019.05 1018.86 1019.56 1019.97 1020.28 1020.16 1019.70 1019.82 1019.41 1018.71 1017.58 1016.89 1016.05 1015.53 1015.12 1015.07 1014.59 1014.43 1013.43 1012.86 1012.31 1011.39
1001.92 1003.10 1004.13 1005.14 1006.18 1007.55 1008.59 1009.71 1010.33 1011.36 1012.18 1013.23 1014.41 1014.56 1015.00 1015.90 1016.73 1017.88 1018.51 1019.07 1019.37 1019.30 1019.39 1019.48 1019.69 1019.70 1019.44 1019.20 1018.88 1018.42 1017.92 1017.69 1017.46 1016.52 1016.09 1015.62 1015.06 1014.31 1013.73 1013.37 1012.62 1011.94 1011.09
1001.34 1002.56 1003.84 1004.81 1006.13 1007.24 1008.02 1008.80 1009.46 1010.44 1010.98 1011.89 1012.83 1013.11 1013.75 1014.79 1015.68 1016.66 1017.28 1017.77 1018.09 1018.42 1018.70 1018.62 1018.41 1018.22 1018.06 1018.02 1017.96 1017.96 1017.72 1017.42 1016.88 1016.68 1016.10 1015.57 1015.16 1014.67 1014.04 1013.57 1012.78 1011.97 1011.18
1000.61 1002.00 1003.06 1004.24 1005.52 1006.68 1007.96 1009.29 1010.12 1010.42 1011.56 1012.26 1012.51 1012.53 1013.58 1014.12 1015.65 1016.80 1017.49 1017.99 1018.32 1018.70 1018.59 1017.78 1017.66 1017.81 1017.81 1017.80 1017.71 1017.56 1017.28 1017.28 1017.32 1016.94 1016.41 1015.82 1015.16 1014.62 1014.12 1013.24 1012.71 1012.18 1011.55
999.77 1000.97 1002.37 1003.51 1004.77 1006.69 1007.79 1008.99 1010.51 1012.38 1012.48 1012.70 1012.92 1013.32 1014.18 1015.11 1015.93 1016.99 1017.66 1018.16 1018.48 1018.78 1018.10 1017.36 1017.43 1017.63 1017.69 1017.71 1017.59 1017.41 1017.33 1017.56 1017.65 1016.93 1016.33 1015.83 1015.30 1014.77 1014.03 1013.33 1012.64 1012.15 1011.75
999.78 1000.65 1001.80 1002.49 1003.89 1005.61 1006.90 1008.07 1009.47 1010.78 1011.63 1012.86 1013.77 1014.16 1014.80 1015.59 1016.25 1017.01 1017.61 1017.94 1018.23 1018.45 1017.28 1016.94 1017.09 1017.36 1017.53 1017.64 1017.57 1017.46 1017.51 1017.30 1017.16 1016.88 1016.36 1016.09 1015.57 1014.94 1014.34 1014.00 1013.45 1013.09 1012.35
999.67 1000.71 1001.26 1002.30 1003.46 1004.67 1006.12 1007.50 1008.58 1009.50 1010.26 1011.48 1013.17 1014.64 1015.47 1015.92 1016.48 1016.97 1017.19 1016.19 1016.17 1016.26 1016.35 1016.71 1017.07 1017.28 1017.57 1017.71 1017.76 1017.81 1017.87 1017.41 1017.45 1017.13 1016.37 1016.10 1015.75 1015.11 1014.21 1013.47 1012.94 1012.72 1012.57
999.82 1000.45 1001.02 1002.01 1003.20 1004.44 1005.73 1006.93 1007.92 1008.68 1009.27 1010.49 1011.83 1012.93 1014.60 1015.85 1016.28 1016.57 1016.43 1015.93 1015.45 1015.55 1015.82 1016.15 1016.80 1017.22 1017.50 1017.72 1017.64 1017.52 1017.19 1017.02 1017.01 1016.77 1016.51 1016.15 1015.78 1015.05 1014.55 1013.98 1013.75 1012.98 1012.22
999.42 1000.63 1001.09 1001.99 1003.16 1004.22 1005.55 1006.54 1007.16 1007.82 1008.59 1009.75 1010.65 1011.79 1013.03 1013.44 1014.08 1014.64 1014.93 1014.97 1015.08 1015.19 1015.64 1015.88 1016.31 1016.80 1017.32 1017.57 1017.67 1017.52 1017.30 1017.20 1017.06 1017.00 1016.78 1016.30 1015.64 1015.09 1014.61 1013.94 1013.31 1013.10 1012.60
999.39 1000.44 1001.23 1001.70 1002.78 1004.14 1005.12 1005.78 1006.57 1007.15 1007.96 1008.94 1009.89 1011.63 1012.99 1012.28 1012.63 1013.19 1013.69 1014.21 1014.61 1015.04 1015.45 1015.95 1016.11 1016.40 1016.79 1017.22 1017.55 1017.46 1017.24 1017.11 1017.30 1017.05 1016.65 1016.23 1015.65 1015.15 1014.64 1014.06 1013.55 1013.19 1012.71
999.30 1000.17 1000.86 1001.67 1002.83 1003.92 1004.93 1005.40 1005.93 1006.50 1007.32 1008.20 1009.20 1011.00 1012.19 1011.64 1011.65 1012.34 1012.98 1013.62 1014.25 1014.74 1015.31 1015.77 1015.94 1016.38 1016.84 1017.43 1017.71 1017.74 1017.28 1017.30 1017.47 1017.35 1016.92 1016.03 1015.77 1015.73 1015.02 1014.57 1013.95 1013.69 1013.16
999.12 999.76 1000.40 1001.45 1002.43 1003.32 1004.19 1004.97 1005.54 1006.21 1006.73 1007.41 1008.36 1009.75 1010.46 1010.64 1011.05 1011.82 1012.60 1013.32 1014.12 1014.69 1015.38 1015.79 1015.95 1016.23 1017.14 1017.10 1017.49 1017.50 1017.47 1018.05 1017.94 1017.21 1016.99 1016.34 1015.88 1015.69 1015.36 1014.98 1014.35 1014.21 1013.76
999.39 999.93 1000.46 1001.29 1002.20 1003.04 1003.90 1004.52 1005.11 1005.62 1006.29 1006.99 1007.84 1009.00 1009.60 1010.19 1010.63 1011.35 1012.20 1013.00 1013.84 1014.45 1015.07 1015.57 1016.09 1016.77 1017.21 1017.52 1017.55 1017.66 1019.08 1019.20 1018.76 1018.61 1017.10 1016.60 1016.62 1016.33 1016.10 1015.45 1014.96 1014.39 1014.33
1000.08 1000.44 1000.73 1001.29 1002.02 1002.53 1003.34 1004.18 1004.92 1005.33 1005.70 1006.25 1007.12 1008.06 1008.87 1009.56 1010.14 1010.94 1011.81 1012.68 1013.36 1013.99 1014.72 1015.46 1016.11 1016.68 1017.26 1017.52 1017.89 1018.95 1019.02 1019.07 1018.38 1018.65 1018.02 1016.46 1016.54 1016.68 1016.44 1015.87 1015.40 1014.80 1014.45
Wind_Speed
15 14 13 13 13 12 11 11 9 8 7 6 6 7 7 6 4 2 3 3 3 3 2 3 4 4 6 5 4 5 4 5 8 8 9 9 10 10 11 11 12 11 10
15 14 15 13 13 13 12 11 10 9 8 8 9 8 7 6 4 3 1 3 3 2 2 2 4 4 5 3 5 4 5 6 7 11 9 10 9 10 11 12 9 10 9
15 15 15 14 14 14 12 11 10 10 10 10 9 9 9 7 5 4 3 3 3 2 2 3 4 4 4 6 6 7 6 7 7 9 10 8 8 7 11 10 9 9 8
16 16 15 16 15 13 12 12 11 11 11 11 10 10 8 7 6 5 5 4 4 3 2 3 4 5 5 7 7 6 6 9 7 8 8 8 8 9 8 9 10 9 10
16 16 15 15 14 13 13 13 13 13 12 11 11 10 8 7 6 7 6 5 4 3 2 1 5 6 4 5 7 8 9 9 8 9 9 8 9 10 10 10 11 11 10
16 17 15 15 14 14 14 14 13 13 12 11 12 12 9 6 8 4 2 4 4 3 3 1 2 7 1 7 3 6 7 8 10 9 10 10 9 10 10 10 12 12 10
16 16 15 15 16 15 15 15 15 14 13 12 12 11 7 7 8 7 1 4 4 2 2 1 3 4 5 8 5 9 12 12 11 8 11 11 12 11 12 12 12 12 12
17 17 16 16 15 15 15 15 14 14 14 13 12 9 9 7 9 9 5 5 4 3 2 1 2 4 7 8 10 9 9 9 5 8 10 11 11 11 11 12 15 14 12
19 17 17 17 16 17 17 15 13 15 13 13 12 10 8 9 10 10 8 6 5 4 3 1 4 4 8 8 10 8 9 8 6 8 11 14 15 15 14 10 10 12 12
18 17 16 16 16 17 17 15 15 14 14 12 11 9 11 11 10 9 8 4 5 4 4 5 4 5 5 6 9 9 10 10 12 11 9 7 11 9 16 10 10 12 12
15 15 15 16 16 16 15 14 15 15 14 14 13 10 8 10 10 8 4 5 3 5 2 3 5 4 3 5 8 7 10 12 12 9 8 7 8 8 8 9 10 11 12
14 15 16 16 14 13 17 14 16 16 16 13 14 9 7 10 10 8 5 3 2 3 2 1 4 2 4 6 9 7 12 14 6 7 7 8 9 9 9 10 11 10 10
16 15 16 16 15 15 16 16 14 15 13 13 12 10 10 9 9 10 7 5 4 3 1 6 4 3 10 10 9 9 14 6 7 7 8 8 9 10 12 11 11 11 11
17 17 16 17 15 15 13 14 14 15 14 13 12 11 10 10 9 9 8 7 5 6 5 5 1 7 8 7 8 6 5 6 7 8 8 9 9 9 9 10 11 11 12
18 17 17 15 15 14 14 12 13 14 14 15 12 12 12 11 11 10 8 9 8 4 3 4 6 4 4 3 4 4 4 6 6 7 8 8 9 10 10 11 10 11 11
19 16 15 15 14 12 11 8 19 13 10 5 9 9 8 10 18 13 12 10 10 8 6 5 3 3 3 4 4 4 4 4 7 7 8 8 9 10 10 10 11 11 12
17 18 15 15 15 13 13 12 12 8 13 10 10 11 12 15 17 15 12 10 8 7 7 3 3 2 3 3 3 4 5 6 6 7 7 8 9 9 10 11 11 11 12
18 15 15 14 14 15 14 14 13 14 14 10 4 6 14 15 16 15 13 11 7 6 7 4 3 2 2 2 3 4 4 5 6 7 7 8 9 10 10 12 12 14 13
16 15 14 13 13 14 14 13 12 13 12 13 12 8 9 12 12 12 14 9 8 7 5 5 3 2 1 1 2 2 3 5 5 7 7 8 9 9 10 10 10 10 11
15 15 13 13 13 14 13 13 12 11 12 13 12 13 13 12 11 11 10 9 7 6 5 5 4 2 1 1 1 2 3 4 5 6 7 7 8 9 10 11 11 12 11
12 14 13 13 13 13 13 11 10 11 12 12 12 13 17 14 12 12 11 9 8 7 6 5 6 5 4 3 1 2 3 4 4 5 7 7 7 8 9 9 10 11 11
13 14 12 12 13 13 12 11 10 13 13 13 12 14 17 12 11 11 10 9 8 7 6 5 5 4 3 2 1 2 2 3 5 6 6 7 7 9 9 10 10 11 12
13 14 13 12 12 13 12 10 12 13 13 13 13 14 15 11 11 11 10 10 8 8 7 6 5 5 5 3 1 2 3 3 3 4 5 6 7 9 9 10 11 12 12
14 15 14 13 13 14 14 10 12 13 14 14 14 15 15 12 12 12 11 10 9 8 8 6 5 6 5 4 3 3 3 5 4 3 6 6 7 8 9 10 10 13 12
11 10 11 12 13 13 13 11 13 15 14 13 14 14 14 12 12 12 11 10 10 10 10 8 6 8 7 4 4 5 7 3 6 9 6 6 8 10 9 9 11 10 13
10 9 8 9 12 12 13 10 12 13 14 13 13 14 14 13 12 12 12 12 11 11 11 8 8 9 9 6 6 7 2 3 3 7 9 4 6 8 10 9 13 10 12
Wind_Direction
205 205 210 211 212 216 223 226 230 225 214 201 190 166 158 147 155 126 80 109 103 108 99 59 44 6 1 356 333 340 321 316 312 324 318 335 320 331 325 329 311 309 308
201 204 206 210 209 215 220 219 219 211 197 194 173 165 153 155 163 179 184 107 144 143 116 60 33 12 346 28 321 351 348 314 305 311 326 319 334 325 330 315 324 318 321
198 201 206 205 209 216 215 212 207 199 187 177 169 161 159 156 165 157 138 138 135 126 96 65 36 17 16 1 338 338 337 324 305 319 306 322 326 345 328 323 331 312 312
197 202 203 207 208 208 207 205 197 182 183 173 165 158 156 149 171 156 148 150 146 133 100 56 43 27 7 355 332 332 341 314 325 303 318 324 326 351 329 336 327 334 330
197 202 203 206 204 205 199 197 189 185 178 166 155 147 153 168 180 158 157 160 162 161 121 122 74 45 37 2 331 349 328 326 327 328 321 321 344 341 337 334 329 325 326
196 201 203 200 200 201 196 191 175 178 166 160 161 152 159 202 111 93 160 159 170 180 180 123 147 207 21 212 246 298 305 320 314 323 321 338 329 324 334 333 314 331 323
199 202 201 199 200 197 191 181 179 168 162 166 157 149 150 138 156 148 101 154 186 163 196 263 282 66 290 340 307 253 256 228 243 297 306 314 313 325 322 314 322 315 309
199 204 202 197 197 191 188 183 174 167 169 159 146 138 147 148 158 150 162 154 159 185 206 228 326 344 39 335 323 313 316 311 322 314 315 302 304 321 309 306 299 288 297
202 201 198 194 192 188 185 177 171 167 160 154 150 147 150 145 160 163 201 169 151 182 181 63 344 340 42 341 310 321 319 321 334 251 261 265 265 264 264 302 322 314 322
198 194 191 188 190 187 180 168 168 164 158 150 143 158 159 150 164 178 219 191 175 194 208 143 102 17 2 329 322 330 329 339 326 324 305 274 231 266 226 247 311 319 319
190 187 185 185 187 183 165 161 165 163 149 148 147 154 170 157 158 181 207 240 207 206 210 180 109 93 326 327 308 331 327 311 302 297 311 327 337 334 334 343 322 316 315
177 178 181 180 182 170 158 158 163 155 154 146 149 154 160 157 150 170 185 299 15 217 244 117 103 133 273 271 297 332 292 285 313 325 335 339 341 333 339 328 313 312 310
171 175 174 173 177 153 160 161 159 160 156 157 163 162 166 172 163 137 157 157 193 230 16 63 93 245 256 240 226 262 272 331 335 334 342 342 338 334 323 322 324 314 303
166 169 168 169 161 161 166 168 165 169 169 166 169 173 173 172 167 167 173 173 179 216 159 194 201 287 275 284 262 235 324 352 333 342 338 337 330 334 328 337 324 329 324
166 166 167 165 161 163 173 179 174 178 176 172 171 180 172 176 176 167 169 181 179 121 173 218 227 253 296 321 326 338 330 342 345 343 337 337 337 340 341 330 333 330 331
161 163 169 157 160 166 153 128 42 83 93 163 173 176 151 133 128 126 111 102 97 124 203 234 231 274 310 329 331 337 339 349 3 331 342 339 340 336 341 328 338 338 335
162 162 161 166 159 159 159 154 140 65 60 49 88 103 122 135 134 136 132 128 133 154 237 204 234 272 310 324 334 340 350 14 317 341 338 339 337 337 329 339 340 348 340
165 153 163 164 161 166 164 164 160 163 164 157 99 111 122 139 137 141 146 158 155 206 257 208 205 236 291 324 338 353 356 344 346 337 337 339 339 340 341 346 342 347 344
158 164 166 160 160 163 161 163 157 164 165 154 141 130 133 121 133 146 170 193 190 195 192 185 199 214 287 303 359 350 327 346 328 324 344 342 345 337 343 340 343 342 329
161 161 156 158 149 161 158 161 163 167 166 159 168 158 153 155 170 172 189 212 191 200 182 183 171 178 157 257 322 315 304 320 335 340 344 346 346 337 345 349 348 344 349
158 155 151 149 158 159 160 162 161 167 170 169 173 161 164 177 174 176 188 191 196 186 185 185 179 148 177 188 278 303 324 338 351 350 351 350 339 348 349 349 352 348 348
150 157 162 160 155 162 161 159 167 176 173 172 166 149 169 198 177 178 182 181 183 178 177 180 175 169 141 99 59 336 328 1 2 360 354 338 1 349 351 352 354 355 351
155 160 163 157 161 159 163 169 178 177 175 173 163 158 180 201 178 178 178 177 171 174 165 185 171 160 139 148 101 317 345 30 5 360 342 349 9 355 0 358 360 5 360
159 165 163 159 162 171 168 170 184 179 178 175 168 169 179 192 179 177 178 172 173 171 169 175 182 150 137 171 147 206 96 24 328 17 311 14 11 7 0 9 4 13 12
159 163 162 164 161 177 172 173 188 182 183 179 174 174 180 187 182 176 179 171 174 172 175 170 164 151 155 148 92 78 67 355 304 333 295 31 23 356 16 12 4 17 28
165 169 158 167 170 178 177 182 188 188 186 183 180 178 181 185 182 176 175 173 177 176 168 172 158 162 154 160 101 81 64 289 300 282 301 27 19 37 345 16 10 21 24